[[{"header":{"parameterUnit":"m.s-1","parameterCategory":1,"la1":30.2991,"la2":30.254,"lo1":-89.0895,"lo2":-89.0444,"dy":0.0017,"dx":0.0017,"nx":28,"ny":28,"refTime":"2023-08-05T03:00:00:Z","depth":0,"parameterNumber":2,"parameterNumberName":"U-component_of_WINDS"},"data":[0,0,0,0,0,0,0,0,0,0,0,0,0,0,0,0,0,0,0,0,0,0,0,0,0,0,0,0,0,0,0,0,0,0,0,0,0,0,0,0,0,0,0,0,0,0,0,0,0,0,0,0,0,0,0,0,0,0,1.7123,1.7124,0,1.7221,1.7222,1.7223,1.722,1.7219,1.7218,1.7216,1.7318,1.7322,1.7326,0,0,0,0,0,0,0,0,0,0,0,0,0,1.6932,1.6936,1.7122,1.7124,1.7125,1.7221,1.7222,1.7223,1.722,1.7219,1.7217,1.7216,1.7316,1.7321,1.7326,0,0,0,0,0,0,0,0,0,0,0,0,0,1.7021,1.6937,1.7122,1.7135,1.7137,1.722,1.7222,1.7224,1.7221,1.7219,1.7217,1.7215,1.7315,1.7321,1.7327,1.7404,0,0,1.7345,1.7347,0,0,0,0,0,0,0,0,1.7016,1.7028,1.7132,1.7134,1.7137,1.7206,1.7192,1.7284,1.7221,1.7189,1.7216,1.7214,1.7282,1.7291,1.7314,1.7408,1.7413,1.7345,1.7349,1.7351,1.7353,0,0,0,0,0,0,0,1.701,1.7024,1.7161,1.7133,1.7136,1.7136,1.7146,1.721,1.7246,1.7192,1.7192,1.7203,1.7283,1.7308,1.7316,1.7414,1.7345,1.735,1.7354,1.7356,1.7576,1.7578,0,0,0,0,0,0,1.7001,1.7019,1.7158,1.7164,1.707,1.7141,1.7153,1.7186,1.7245,1.7252,1.7205,1.7203,1.7299,1.7309,1.732,1.7413,1.7351,1.7357,1.736,1.7574,1.7576,1.7579,0,0,0,0,0,0,1.6997,1.7014,1.7154,1.7092,1.7109,1.7146,1.7184,1.7189,1.7214,1.7255,1.7262,1.7224,1.7298,1.7311,1.7382,1.7416,1.736,1.7365,1.7571,1.7574,1.7578,1.76,0,0,0,0,0,0,1.6992,1.7012,1.7042,1.7092,1.7113,1.7215,1.7186,1.7192,1.7224,1.7222,1.7274,1.7281,1.7297,1.7374,1.7388,1.7423,1.737,1.7568,1.7572,1.7576,1.7596,1.7604,1.761,0,0,0,0,0,1.6985,1.7045,1.7043,1.706,1.7151,1.7217,1.7229,1.7246,1.7227,1.7256,1.7283,1.7279,1.741,1.7381,1.7397,1.7435,1.7566,1.7571,1.7576,1.7593,1.7602,1.761,0,0,0,0,0,0,1.6998,1.7052,1.7051,1.7129,1.7168,1.7217,1.7255,1.7255,1.7302,1.7298,1.7317,1.7329,1.74,1.7425,1.7391,1.7512,1.7486,1.7494,1.7493,1.7502,1.7508,1.75,1.7375,0,0,0,0,0,1.701,1.7059,1.7104,1.7168,1.7188,1.7218,1.7248,1.7257,1.7299,1.7316,1.7348,1.7389,1.7439,1.7472,1.7521,1.76,1.7611,1.7634,1.7641,1.7646,1.7653,1.7695,1.7706,1.7596,1.7596,1.7595,0,0,1.7035,1.707,1.71,1.7172,1.7203,1.7254,1.7232,1.7287,1.7325,1.7325,1.7393,1.7418,1.7465,1.754,1.7575,1.7563,1.7686,1.7653,1.7657,1.7661,1.7702,1.7712,1.7721,1.7599,1.7598,1.7598,0,0,1.7106,1.7138,1.7195,1.7227,1.7275,1.7295,1.7308,1.7357,1.7373,1.7442,1.7443,1.7488,1.7575,1.7608,1.7636,1.7719,1.7717,1.7734,1.7769,1.7811,1.7819,1.7827,1.7855,1.7865,1.7741,1.7741,1.7741,0,1.7131,1.7207,1.7224,1.7278,1.7309,1.7311,1.7368,1.7399,1.7461,1.7482,1.7468,1.7576,1.7608,1.769,1.771,1.7733,1.7749,1.7728,1.7817,1.7825,1.7832,1.7859,1.787,1.7743,1.7743,1.7743,1.7743,0,1.7234,1.7287,1.7327,1.7386,1.7422,1.7477,1.7502,1.7536,1.7543,1.7564,1.7634,1.7672,1.7728,1.7749,1.7756,1.7832,1.7822,1.7812,1.7786,1.7844,1.787,1.788,1.7746,1.7745,1.7744,1.7744,0,0,1.7316,1.7383,1.7397,1.7424,1.7477,1.7518,1.7574,1.7628,1.7656,1.7699,1.7745,1.7818,1.7808,1.784,1.7852,1.7888,1.7949,1.7873,1.7874,1.7885,1.8034,1.804,1.8052,1.7949,1.7951,1.7952,1.8029,0,1.7392,1.749,1.7506,1.7592,1.764,1.7643,1.7691,1.7729,1.775,1.7794,1.7818,1.7868,1.7853,1.7872,1.7908,1.7934,1.7979,1.7929,1.7991,1.7993,1.7978,1.8066,1.8073,1.8144,1.804,1.8041,1.8043,0,1.7493,1.7537,1.7628,1.7673,1.7694,1.7737,1.7787,1.783,1.7873,1.7885,1.7921,1.7927,1.7985,1.7957,1.8036,1.8001,1.8028,1.8044,1.8047,1.8053,1.8021,1.8072,1.8167,1.8177,1.8059,1.8058,1.8057,0,1.7541,1.7624,1.7688,1.7711,1.7766,1.7796,1.7821,1.7862,1.7893,1.7937,1.7957,1.8008,1.8035,1.8074,1.8094,1.8072,1.8171,1.8145,1.8183,1.8182,1.8203,1.8201,1.8301,1.8222,1.8222,1.8222,1.8221,0,1.7623,1.7678,1.7711,1.775,1.7811,1.783,1.789,1.7914,1.7951,1.7994,1.8,1.8042,1.8066,1.8111,1.8127,1.8189,1.8202,1.8213,1.8216,1.8212,1.821,1.8229,1.8224,1.8225,1.8224,1.8223,1.8223,0,1.7687,1.7712,1.7782,1.7828,1.7841,1.7884,1.7924,1.7962,1.7983,1.8038,1.8053,1.8085,1.8138,1.8162,1.8228,1.8239,1.8309,1.831,1.8294,1.8295,1.8331,1.8327,1.8446,1.8462,1.8373,1.8374,1.8374,0,1.7737,1.7779,1.783,1.786,1.7885,1.7933,1.7964,1.7984,1.8017,1.8068,1.81,1.8153,1.8196,1.8281,1.831,1.836,1.8361,1.84,1.8369,1.8362,1.836,1.8357,1.8361,1.8405,1.8406,1.8406,1.8407,0,1.7823,1.7833,1.7878,1.7927,1.7964,1.8004,1.8043,1.8067,1.8094,1.813,1.8184,1.8217,1.8283,1.8335,1.8387,1.8412,1.8414,1.8417,1.8428,1.8423,1.8411,1.8417,1.8308,1.8413,1.8413,1.8412,1.8412,1.8412,1.7881,1.7918,1.7959,1.8009,1.804,1.8076,1.8114,1.814,1.8185,1.824,1.8249,1.8306,1.8347,1.8416,1.8443,1.8488,1.8479,1.8495,1.8499,1.8503,1.8504,1.8405,1.8498,1.8498,1.8498,1.8497,1.8497,0,1.7965,1.7992,1.8038,1.8092,1.8131,1.8129,1.8172,1.8204,1.8254,1.8292,1.8335,1.8396,1.8446,1.848,1.8531,1.856,1.8562,1.8573,1.857,1.8575,1.851,1.8495,1.857,1.857,1.857,1.857,1.857,1.857,1.8014,1.8076,1.8091,1.8168,1.8195,1.825,1.8274,1.8308,1.8338,1.8406,1.8447,1.8469,1.8505,1.8559,1.8604,1.8613,1.8631,1.8642,1.865,1.8588,1.858,1.8573,1.8559,1.8646,1.8646,1.8711,1.8712,1.8712]},{"header":{"parameterUnit":"m.s-1","parameterCategory":1,"la1":30.2991,"la2":30.254,"lo1":-89.0895,"lo2":-89.0444,"dy":0.0017,"dx":0.0017,"nx":28,"ny":28,"refTime":"2023-08-05T03:00:00:Z","depth":0,"parameterNumber":3,"parameterNumberName":"V-component_of_WINDS"},"data":[0,0,0,0,0,0,0,0,0,0,0,0,0,0,0,0,0,0,0,0,0,0,0,0,0,0,0,0,0,0,0,0,0,0,0,0,0,0,0,0,0,0,0,0,0,0,0,0,0,0,0,0,0,0,0,0,0,0,3.9937,3.9936,0,3.9926,3.9925,3.9925,3.9845,3.9843,3.9841,3.9839,3.9829,3.983,3.9832,0,0,0,0,0,0,0,0,0,0,0,0,0,3.9888,3.9889,3.9937,3.9936,3.9936,3.9926,3.9925,3.9925,3.9845,3.9843,3.9841,3.9838,3.9828,3.983,3.9832,0,0,0,0,0,0,0,0,0,0,0,0,0,3.9896,3.9889,3.9937,3.9895,3.9891,3.9926,3.9925,3.9925,3.9846,3.9843,3.984,3.9837,3.9828,3.983,3.9832,3.9906,0,0,3.9839,3.984,0,0,0,0,0,0,0,0,3.9896,3.9898,3.9901,3.9898,3.9894,3.9884,3.9904,3.9919,3.9847,3.9863,3.9839,3.9836,3.9849,3.985,3.9854,3.9905,3.9905,3.9839,3.9841,3.9842,3.9843,0,0,0,0,0,0,0,3.9895,3.9898,3.9932,3.9901,3.9897,3.9877,3.9875,3.9907,3.9873,3.9861,3.9856,3.9855,3.9847,3.9852,3.9853,3.9905,3.9839,3.9841,3.9843,3.9844,4.0013,4.0016,0,0,0,0,0,0,3.99,3.9898,3.9933,3.9932,3.9887,3.988,3.9878,3.989,3.9872,3.9867,3.9858,3.9852,3.985,3.9851,3.9853,3.9936,3.9842,3.9844,3.9845,4.001,4.0014,4.0017,0,0,0,0,0,0,3.99,3.9904,3.9933,3.9913,3.9915,3.9884,3.9898,3.9891,3.9896,3.987,3.9863,3.987,3.9847,3.9849,3.9893,3.9935,3.9845,3.9847,4.0007,4.0011,4.0016,4.0105,0,0,0,0,0,0,3.9899,3.9905,3.9933,3.9915,3.9917,3.9974,3.9901,3.9893,3.9901,3.9892,3.9879,3.9874,3.9845,3.989,3.9895,3.9936,3.9849,4.0003,4.0009,4.0014,4.0098,4.0112,4.0124,0,0,0,0,0,3.9897,3.9959,3.9934,3.9939,3.9951,3.9976,3.9977,3.9943,3.9904,3.9932,3.9914,3.9874,3.9929,3.9895,3.99,3.9943,4.0,4.0007,4.0014,4.0092,4.0109,4.0124,0,0,0,0,0,0,3.9983,3.9956,3.9928,3.9986,3.9984,3.9963,3.9996,3.9962,3.9972,3.9963,3.992,3.9918,3.9967,3.9959,3.9921,4.0012,3.9958,3.9966,4.0015,4.0031,4.0044,4.0045,3.9851,0,0,0,0,0,4.0009,4.0031,4.0006,4.0059,4.006,4.0028,4.0038,4.0011,4.0008,4.0007,3.9992,3.999,4.0007,4.0019,4.0033,4.0097,4.0092,4.0129,4.0142,4.0152,4.016,4.0191,4.0207,4.004,4.004,4.004,0,0,4.0062,4.005,4.0067,4.0076,4.0072,4.0095,4.0028,4.0057,4.0074,4.0011,4.005,4.004,4.0035,4.0088,4.0111,4.0083,4.0205,4.0161,4.017,4.0172,4.02,4.0216,4.023,4.0045,4.0044,4.0043,0,0,4.0171,4.0165,4.0207,4.0203,4.0197,4.0175,4.0186,4.0169,4.0159,4.0198,4.0151,4.0171,4.0201,4.0198,4.0201,4.0307,4.0271,4.0313,4.0381,4.0412,4.0425,4.0437,4.0473,4.0487,4.0321,4.0321,4.0321,0,4.0238,4.0272,4.0234,4.0265,4.027,4.0213,4.0255,4.0253,4.0252,4.0257,4.0225,4.026,4.0253,4.0304,4.033,4.0335,4.0345,4.0314,4.0426,4.0438,4.0448,4.0482,4.0496,4.0326,4.0326,4.0325,4.0325,0,4.0354,4.0379,4.0414,4.0412,4.0421,4.0458,4.0425,4.0438,4.0411,4.0392,4.0432,4.0421,4.0431,4.0441,4.0415,4.0489,4.0471,4.0434,4.0378,4.0469,4.0501,4.0514,4.0334,4.0332,4.033,4.0329,0,0,4.0518,4.0493,4.0507,4.0505,4.0492,4.051,4.0544,4.0553,4.0565,4.0566,4.0592,4.0618,4.0583,4.0586,4.0559,4.0587,4.067,4.0546,4.0545,4.0568,4.0749,4.0776,4.0792,4.0646,4.0648,4.065,4.0749,0,4.0621,4.0677,4.0642,4.0703,4.0724,4.067,4.0699,4.0694,4.0678,4.0693,4.0675,4.0693,4.0646,4.0648,4.0673,4.0655,4.0705,4.0647,4.0669,4.0671,4.0671,4.0809,4.0838,4.0932,4.0761,4.0763,4.0765,0,4.075,4.0754,4.0817,4.0799,4.0806,4.0833,4.0837,4.0853,4.0846,4.0832,4.0835,4.0801,4.0832,4.0778,4.0819,4.0781,4.0787,4.078,4.0783,4.0783,4.0723,4.0811,4.0961,4.0975,4.0784,4.0782,4.0781,0,4.0861,4.0883,4.0923,4.0923,4.0903,4.0923,4.0915,4.0906,4.0913,4.0917,4.0921,4.0929,4.0933,4.094,4.0909,4.0872,4.0954,4.0898,4.0943,4.0944,4.0962,4.0961,4.1114,4.0969,4.0969,4.0968,4.0968,0,4.0979,4.102,4.0972,4.0997,4.104,4.0999,4.1043,4.103,4.1021,4.1042,4.0996,4.1016,4.0974,4.099,4.0965,4.1003,4.1006,4.0995,4.0988,4.0998,4.1,4.1002,4.0994,4.0972,4.0971,4.097,4.097,0,4.1111,4.1081,4.112,4.1097,4.1093,4.1125,4.1106,4.1127,4.1107,4.1134,4.1138,4.1106,4.1123,4.1092,4.1105,4.1088,4.114,4.1124,4.1143,4.1137,4.1184,4.1179,4.1342,4.1361,4.1205,4.1207,4.1208,0,4.1188,4.1217,4.1197,4.1207,4.1202,4.1219,4.1225,4.1187,4.1195,4.1189,4.1211,4.1223,4.1231,4.1259,4.1238,4.1247,4.1229,4.1286,4.123,4.124,4.1229,4.1227,4.1229,4.1297,4.1299,4.1301,4.1302,0,4.1328,4.1311,4.1322,4.1327,4.1336,4.1338,4.1337,4.1348,4.1307,4.1319,4.1334,4.134,4.1352,4.1364,4.1368,4.136,4.1324,4.1319,4.133,4.1341,4.135,4.1344,4.1172,4.1316,4.1314,4.1313,4.1313,4.1312,4.1434,4.1456,4.1445,4.1458,4.1453,4.1453,4.1471,4.1453,4.1465,4.1471,4.1447,4.1468,4.1459,4.146,4.1456,4.1472,4.1446,4.1462,4.1466,4.1471,4.1477,4.1348,4.1472,4.1472,4.1472,4.1471,4.1471,0,4.157,4.156,4.1572,4.1571,4.1581,4.1545,4.1542,4.1553,4.1571,4.1566,4.1574,4.1591,4.1602,4.1581,4.1589,4.1606,4.1589,4.1609,4.1607,4.1606,4.15,4.1489,4.1622,4.1622,4.1622,4.1622,4.1622,4.1622,4.1642,4.1678,4.166,4.1692,4.1681,4.17,4.1701,4.1701,4.1696,4.1717,4.1725,4.1711,4.1699,4.1706,4.1715,4.1708,4.1713,4.1738,4.1726,4.1628,4.1613,4.1599,4.1589,4.174,4.174,4.183,4.1831,4.1831]}]]